[[{"header":{"parameterUnit":"m.s-1","parameterCategory":2,"la1":30.2991,"la2":30.254,"lo1":-89.0895,"lo2":-89.0444,"dy":0.0017,"dx":0.0017,"nx":28,"ny":28,"refTime":"2024-12-16T09:00:00:Z","depth":"0","parameterNumber":2,"parameterNumberName":"U-component_of_CURRENTS"},"data":[0,0,0,0,0,0,0,0,0,0,0,0,0,0,0,0,0,0,0,0,0,0,0,0,0,0,0,0,0,0,0,0,0,0,0,0,0,0,0,0,0,0,0,0,0,0,0,0,0,0,0,0,0,0,0,0,0,0,-0.313,-0.313,0,-0.3161,-0.3162,-0.3162,-0.3123,-0.3122,-0.312,-0.3119,-0.3061,-0.306,-0.306,0,0,0,0,0,0,0,0,0,0,0,0,0,-0.3026,-0.3027,-0.313,-0.313,-0.3131,-0.3161,-0.3162,-0.3162,-0.3123,-0.3121,-0.312,-0.3119,-0.3061,-0.306,-0.306,0,0,0,0,0,0,0,0,0,0,0,0,0,-0.3062,-0.3028,-0.3129,-0.3118,-0.3117,-0.3161,-0.3162,-0.3162,-0.3123,-0.3121,-0.312,-0.3118,-0.3061,-0.306,-0.3059,-0.3089,0,0,-0.3057,-0.3057,0,0,0,0,0,0,0,0,-0.306,-0.3066,-0.3119,-0.3119,-0.3118,-0.3139,-0.3104,-0.3134,-0.3124,-0.3117,-0.3119,-0.3117,-0.3082,-0.3079,-0.3086,-0.3086,-0.3084,-0.3057,-0.3057,-0.3056,-0.3056,0,0,0,0,0,0,0,-0.3058,-0.3064,-0.3139,-0.312,-0.3119,-0.3108,-0.3111,-0.3109,-0.3105,-0.3118,-0.3116,-0.3125,-0.308,-0.3087,-0.3084,-0.3083,-0.3057,-0.3056,-0.3056,-0.3056,-0.3099,-0.3101,0,0,0,0,0,0,-0.3063,-0.3062,-0.3138,-0.314,-0.3088,-0.3111,-0.3115,-0.3131,-0.3107,-0.3103,-0.3127,-0.3123,-0.3089,-0.3085,-0.3082,-0.311,-0.3056,-0.3056,-0.3055,-0.3098,-0.31,-0.3101,0,0,0,0,0,0,-0.3061,-0.307,-0.3137,-0.3104,-0.3112,-0.3115,-0.3134,-0.3133,-0.3132,-0.3115,-0.3108,-0.3126,-0.3087,-0.3083,-0.3086,-0.3107,-0.3055,-0.3055,-0.3096,-0.3098,-0.3101,-0.317,0,0,0,0,0,0,-0.3058,-0.3069,-0.3077,-0.3105,-0.3114,-0.3171,-0.3136,-0.3135,-0.3143,-0.3138,-0.3113,-0.3106,-0.3086,-0.3088,-0.3086,-0.3105,-0.3054,-0.3094,-0.3097,-0.31,-0.3166,-0.3175,-0.3182,0,0,0,0,0,-0.3055,-0.3078,-0.3077,-0.3086,-0.3126,-0.3173,-0.3177,-0.317,-0.3144,-0.3159,-0.3139,-0.3106,-0.3105,-0.3089,-0.3086,-0.3106,-0.3092,-0.3096,-0.31,-0.3162,-0.3173,-0.3182,0,0,0,0,0,0,-0.3031,-0.3078,-0.3077,-0.3111,-0.3142,-0.3167,-0.3178,-0.3174,-0.3172,-0.3159,-0.3128,-0.3122,-0.3134,-0.3116,-0.3098,-0.3129,-0.3093,-0.3097,-0.3142,-0.3152,-0.316,-0.3163,-0.3053,0,0,0,0,0,-0.3033,-0.3061,-0.3104,-0.3127,-0.3146,-0.316,-0.3173,-0.3177,-0.3184,-0.3181,-0.3165,-0.315,-0.3151,-0.3146,-0.3144,-0.3162,-0.313,-0.3173,-0.3182,-0.3188,-0.319,-0.3173,-0.3179,-0.3113,-0.3113,-0.3113,0,0,-0.3026,-0.3057,-0.3069,-0.3124,-0.3141,-0.3185,-0.3163,-0.3194,-0.3222,-0.3175,-0.3193,-0.3178,-0.3163,-0.3184,-0.3187,-0.3167,-0.3191,-0.3193,-0.3199,-0.3197,-0.3177,-0.3183,-0.3189,-0.3116,-0.3115,-0.3115,0,0,-0.304,-0.306,-0.3093,-0.3131,-0.3175,-0.3196,-0.3208,-0.3241,-0.3244,-0.3271,-0.3243,-0.3243,-0.3243,-0.324,-0.3237,-0.3291,-0.3237,-0.3289,-0.333,-0.3313,-0.3318,-0.3322,-0.3286,-0.3286,-0.3291,-0.3291,-0.3292,0,-0.3027,-0.3077,-0.3108,-0.3158,-0.3186,-0.3204,-0.3248,-0.3272,-0.3298,-0.3302,-0.3283,-0.3286,-0.3272,-0.3293,-0.3315,-0.3308,-0.3281,-0.3291,-0.3322,-0.3325,-0.3328,-0.3291,-0.329,-0.3295,-0.3295,-0.3294,-0.3294,0,-0.3071,-0.3114,-0.3139,-0.3206,-0.3245,-0.3285,-0.3333,-0.3358,-0.3358,-0.337,-0.3386,-0.3374,-0.3367,-0.3374,-0.3361,-0.3382,-0.335,-0.3334,-0.3293,-0.3339,-0.3297,-0.3294,-0.3301,-0.3299,-0.3298,-0.3297,0,0,-0.3025,-0.3145,-0.315,-0.3186,-0.3271,-0.3303,-0.3365,-0.3415,-0.343,-0.3452,-0.3463,-0.3481,-0.3457,-0.3453,-0.3435,-0.343,-0.3429,-0.3396,-0.3393,-0.3353,-0.3375,-0.3285,-0.3273,-0.3415,-0.3415,-0.3415,-0.3336,0,-0.304,-0.3132,-0.3193,-0.3265,-0.3312,-0.3364,-0.3415,-0.3462,-0.3482,-0.3501,-0.35,-0.3502,-0.3494,-0.3479,-0.3481,-0.3444,-0.3427,-0.345,-0.3344,-0.334,-0.3249,-0.327,-0.314,-0.3053,-0.3334,-0.3333,-0.3333,0,-0.3051,-0.3113,-0.3191,-0.3288,-0.3311,-0.3355,-0.3416,-0.3467,-0.3516,-0.3528,-0.3542,-0.3534,-0.3544,-0.3516,-0.3482,-0.3495,-0.3442,-0.3409,-0.3404,-0.3293,-0.3246,-0.3055,-0.3037,-0.301,-0.3329,-0.3329,-0.3329,0,-0.2981,-0.3103,-0.3156,-0.3193,-0.3311,-0.3339,-0.339,-0.3456,-0.3486,-0.3531,-0.3538,-0.3556,-0.3536,-0.351,-0.3454,-0.3464,-0.3392,-0.3391,-0.3257,-0.3249,-0.3103,-0.3082,-0.3038,-0.3348,-0.3348,-0.3349,-0.3349,0,-0.2964,-0.3,-0.3123,-0.3148,-0.3191,-0.3292,-0.3328,-0.3383,-0.345,-0.3469,-0.3528,-0.3526,-0.3531,-0.3496,-0.3455,-0.3343,-0.3387,-0.3259,-0.3224,-0.3123,-0.3106,-0.3046,-0.3067,-0.3346,-0.3346,-0.3347,-0.3347,0,-0.2869,-0.296,-0.3016,-0.313,-0.3159,-0.3179,-0.3281,-0.3304,-0.3388,-0.3412,-0.3423,-0.3487,-0.3447,-0.3429,-0.3366,-0.3311,-0.3167,-0.3174,-0.3048,-0.2999,-0.2854,-0.2884,-0.2784,-0.2709,-0.3021,-0.3019,-0.3016,0,-0.2828,-0.285,-0.2959,-0.2976,-0.302,-0.3077,-0.3111,-0.3236,-0.3269,-0.3371,-0.3364,-0.3368,-0.3319,-0.3217,-0.3144,-0.304,-0.3036,-0.2856,-0.2857,-0.2823,-0.2832,-0.2853,-0.28,-0.2689,-0.2684,-0.268,-0.2677,0,-0.2721,-0.2758,-0.2798,-0.2841,-0.2877,-0.2923,-0.2987,-0.301,-0.3145,-0.3168,-0.3179,-0.3153,-0.31,-0.2951,-0.2848,-0.2778,-0.2785,-0.277,-0.2768,-0.2594,-0.2581,-0.2498,-0.2767,-0.2643,-0.2646,-0.2649,-0.2651,-0.2652,-0.2607,-0.2603,-0.2652,-0.2673,-0.2713,-0.2725,-0.2704,-0.2789,-0.2804,-0.2814,-0.292,-0.2846,-0.2799,-0.2641,-0.2575,-0.2435,-0.2516,-0.2364,-0.2409,-0.2439,-0.2351,-0.2538,-0.2359,-0.2361,-0.2363,-0.2364,-0.2365,0,-0.2454,-0.2467,-0.2481,-0.2499,-0.2465,-0.2548,-0.2579,-0.2528,-0.2478,-0.2546,-0.2525,-0.2484,-0.2336,-0.2321,-0.2209,-0.2108,-0.2073,-0.2068,-0.2081,-0.2048,-0.222,-0.2189,-0.1926,-0.1926,-0.1926,-0.1926,-0.1926,-0.1926,-0.2374,-0.2329,-0.234,-0.2236,-0.2237,-0.2138,-0.211,-0.2065,-0.2073,-0.2006,-0.2025,-0.2098,-0.2098,-0.2198,-0.2054,-0.1958,-0.1923,-0.1853,-0.1903,-0.2052,-0.2085,-0.2116,-0.2092,-0.1812,-0.1812,-0.1647,-0.1646,-0.1645]},{"header":{"parameterUnit":"m.s-1","parameterCategory":2,"la1":30.2991,"la2":30.254,"lo1":-89.0895,"lo2":-89.0444,"dy":0.0017,"dx":0.0017,"nx":28,"ny":28,"refTime":"2024-12-16T09:00:00:Z","depth":"0","parameterNumber":3,"parameterNumberName":"V-component_of_CURRENTS"},"data":[0,0,0,0,0,0,0,0,0,0,0,0,0,0,0,0,0,0,0,0,0,0,0,0,0,0,0,0,0,0,0,0,0,0,0,0,0,0,0,0,0,0,0,0,0,0,0,0,0,0,0,0,0,0,0,0,0,0,-0.0313,-0.0312,0,-0.0207,-0.0205,-0.0204,-0.0131,-0.0131,-0.0131,-0.013,0.0011,0.0015,0.0018,0,0,0,0,0,0,0,0,0,0,0,0,0,-0.0391,-0.039,-0.0313,-0.0312,-0.0311,-0.0207,-0.0205,-0.0204,-0.0132,-0.0131,-0.0131,-0.013,0.001,0.0014,0.0018,0,0,0,0,0,0,0,0,0,0,0,0,0,-0.0326,-0.039,-0.0313,-0.0264,-0.0258,-0.0207,-0.0205,-0.0203,-0.0132,-0.0131,-0.0131,-0.013,0.0009,0.0014,0.0019,0.004,0,0,0.0035,0.0037,0,0,0,0,0,0,0,0,-0.033,-0.0323,-0.0272,-0.0267,-0.0261,-0.0183,-0.0181,-0.0121,-0.0132,-0.0178,-0.013,-0.013,-0.0052,-0.0042,-0.0021,0.0047,0.0053,0.0035,0.0038,0.004,0.0042,0,0,0,0,0,0,0,-0.0335,-0.0327,-0.0269,-0.0271,-0.0264,-0.0225,-0.0216,-0.0169,-0.0117,-0.0174,-0.0169,-0.016,-0.0049,-0.0026,-0.0017,0.0055,0.0035,0.004,0.0043,0.0045,0.0168,0.0168,0,0,0,0,0,0,-0.0356,-0.0332,-0.0272,-0.0266,-0.0297,-0.0225,-0.0214,-0.0207,-0.0118,-0.0105,-0.0161,-0.0157,-0.0035,-0.0023,-0.0012,0.0022,0.004,0.0045,0.0048,0.0168,0.0168,0.0168,0,0,0,0,0,0,-0.0358,-0.0351,-0.0277,-0.0298,-0.0286,-0.0225,-0.0217,-0.0206,-0.0184,-0.0109,-0.0095,-0.0152,-0.0034,-0.0019,0.003,0.0028,0.0048,0.0052,0.0168,0.0168,0.0168,0.0089,0,0,0,0,0,0,-0.036,-0.0353,-0.0358,-0.0299,-0.0285,-0.0258,-0.0217,-0.0204,-0.018,-0.0175,-0.0097,-0.0083,-0.0033,0.0021,0.0035,0.0036,0.0056,0.0168,0.0168,0.0168,0.0091,0.0086,0.0082,0,0,0,0,0,-0.0364,-0.0378,-0.0359,-0.0351,-0.0293,-0.0258,-0.0248,-0.0201,-0.0181,-0.0178,-0.012,-0.0085,0.0033,0.0026,0.0041,0.0044,0.0167,0.0168,0.0168,0.0093,0.0087,0.0082,0,0,0,0,0,0,-0.0415,-0.037,-0.0348,-0.0348,-0.031,-0.0247,-0.0243,-0.0209,-0.0161,-0.0156,-0.0083,-0.0065,-0.0023,0.0022,0.0011,0.0081,0.0106,0.011,0.0044,0.0039,0.0034,0.0013,0.0061,0,0,0,0,0,-0.043,-0.0428,-0.0375,-0.0376,-0.0362,-0.0303,-0.0284,-0.0252,-0.0202,-0.018,-0.0124,-0.0063,-0.0009,0.0022,0.0073,0.011,0.0161,0.0123,0.0118,0.0114,0.0109,0.0186,0.0187,0.017,0.017,0.017,0,0,-0.045,-0.0426,-0.0424,-0.0387,-0.0354,-0.0342,-0.029,-0.027,-0.0253,-0.0173,-0.0137,-0.008,-0.0004,0.0039,0.0062,0.0077,0.0147,0.0115,0.011,0.0107,0.0186,0.0188,0.0189,0.017,0.017,0.017,0,0,-0.0497,-0.0468,-0.0485,-0.0458,-0.0419,-0.0379,-0.0378,-0.0319,-0.0286,-0.0245,-0.0181,-0.0125,-0.0049,0.0011,0.0051,0.0053,0.0116,0.0066,0.0032,0.0106,0.0108,0.011,0.0174,0.0183,0.0068,0.0068,0.0068,0,-0.0525,-0.0532,-0.0484,-0.049,-0.0475,-0.0402,-0.0411,-0.0366,-0.0297,-0.0266,-0.0248,-0.0119,-0.006,0.001,0.0009,0.0042,0.0089,0.0043,0.0099,0.0103,0.0106,0.0172,0.0182,0.0064,0.0065,0.0065,0.0066,0,-0.058,-0.0583,-0.059,-0.057,-0.0546,-0.0542,-0.0476,-0.0443,-0.0395,-0.034,-0.0268,-0.0181,-0.0102,-0.0074,-0.0033,0.0025,0.0051,0.0079,0.0107,0.0103,0.0173,0.0185,0.0059,0.006,0.0061,0.0062,0,0,-0.0645,-0.0634,-0.0635,-0.064,-0.0588,-0.0575,-0.0542,-0.0486,-0.0455,-0.038,-0.0333,-0.0239,-0.0183,-0.0135,-0.0067,-0.0003,0.0062,0.0038,0.0044,0.0091,0.022,0.027,0.0289,0.0098,0.0099,0.0101,0.0256,0,-0.0701,-0.0744,-0.0709,-0.0729,-0.0742,-0.0663,-0.0637,-0.0571,-0.0498,-0.0431,-0.0325,-0.0259,-0.0206,-0.017,-0.0098,0.0027,0.0091,0.0017,0.0226,0.0232,0.027,0.0305,0.0341,0.0486,0.0269,0.0271,0.0272,0,-0.0763,-0.0782,-0.0827,-0.0809,-0.0804,-0.0797,-0.073,-0.0695,-0.0576,-0.0517,-0.0423,-0.0334,-0.0222,-0.0185,0.0021,-0.003,0.0079,0.0172,0.0181,0.0264,0.0307,0.0458,0.0517,0.067,0.0292,0.0291,0.0289,0,-0.0841,-0.0856,-0.0897,-0.0893,-0.0863,-0.0856,-0.0825,-0.0726,-0.0688,-0.0569,-0.0521,-0.0374,-0.0293,-0.014,0.0058,0.0039,0.0288,0.0293,0.0443,0.0447,0.0539,0.0549,0.0763,0.0428,0.0428,0.0427,0.0427,0,-0.0915,-0.0941,-0.094,-0.0963,-0.0993,-0.0936,-0.0928,-0.0867,-0.0772,-0.0719,-0.0577,-0.0492,-0.0279,-0.0106,0.0055,0.0301,0.0295,0.0447,0.0498,0.0512,0.0517,0.0702,0.075,0.0433,0.0432,0.0431,0.043,0,-0.0993,-0.0994,-0.104,-0.1037,-0.1037,-0.1056,-0.1014,-0.0995,-0.0893,-0.0816,-0.0784,-0.0571,-0.0333,-0.0103,0.017,0.0307,0.0634,0.061,0.0608,0.0655,0.0911,0.095,0.1209,0.1299,0.0792,0.0794,0.0796,0,-0.1036,-0.1074,-0.111,-0.1142,-0.1146,-0.1159,-0.116,-0.1073,-0.1038,-0.0851,-0.0815,-0.0574,-0.037,0.006,0.0345,0.0654,0.0761,0.0847,0.0816,0.0946,0.103,0.1053,0.111,0.0909,0.0912,0.0914,0.0916,0,-0.1112,-0.1127,-0.1165,-0.1243,-0.1269,-0.1286,-0.1272,-0.1263,-0.1135,-0.1026,-0.083,-0.065,-0.0222,0.0164,0.0558,0.074,0.096,0.09,0.1054,0.1157,0.1181,0.1285,0.0773,0.0936,0.0934,0.0932,0.0931,0.093,-0.1155,-0.1208,-0.1264,-0.1328,-0.1365,-0.1387,-0.1384,-0.1331,-0.1246,-0.1041,-0.0861,-0.0533,-0.0004,0.0574,0.0779,0.1197,0.1145,0.131,0.1353,0.137,0.1445,0.0966,0.117,0.1169,0.1169,0.1168,0.1168,0,-0.12,-0.1261,-0.1339,-0.1406,-0.1453,-0.1449,-0.1431,-0.1377,-0.1261,-0.1031,-0.0791,-0.0164,0.0359,0.083,0.1416,0.1635,0.1671,0.1743,0.179,0.1832,0.1441,0.1434,0.1683,0.1682,0.1682,0.1682,0.1682,0.1682,-0.1225,-0.1313,-0.136,-0.1454,-0.1495,-0.1507,-0.1486,-0.1372,-0.1197,-0.0794,-0.0417,-0.0107,0.0559,0.1479,0.2004,0.2053,0.2219,0.221,0.2299,0.2026,0.1988,0.1952,0.196,0.2315,0.2316,0.2679,0.2682,0.2685]}],[{"header":{"parameterUnit":"m.s-1","parameterCategory":2,"la1":30.2991,"la2":30.254,"lo1":-89.0895,"lo2":-89.0444,"dy":0.0017,"dx":0.0017,"nx":28,"ny":28,"refTime":"2024-12-16T09:00:00:Z","depth":"2","parameterNumber":2,"parameterNumberName":"U-component_of_CURRENTS"},"data":[0,0,0,0,0,0,0,0,0,0,0,0,0,0,0,0,0,0,0,0,0,0,0,0,0,0,0,0,0,0,0,0,0,0,0,0,0,0,0,0,0,0,0,0,0,0,0,0,0,0,0,0,0,0,0,0,0,0,-0.2677,-0.2678,0,-0.2711,-0.2711,-0.2711,-0.2687,-0.2686,-0.2685,-0.2684,-0.2652,-0.2652,-0.2652,0,0,0,0,0,0,0,0,0,0,0,0,0,-0.2593,-0.2595,-0.2677,-0.2678,-0.2679,-0.2711,-0.2711,-0.2711,-0.2687,-0.2686,-0.2685,-0.2684,-0.2652,-0.2652,-0.2652,0,0,0,0,0,0,0,0,0,0,0,0,0,-0.2626,-0.2595,-0.2677,-0.2672,-0.2673,-0.271,-0.2711,-0.2711,-0.2687,-0.2686,-0.2685,-0.2684,-0.2652,-0.2652,-0.2652,-0.2675,0,0,-0.2651,-0.2651,0,0,0,0,0,0,0,0,-0.2624,-0.2629,-0.2672,-0.2673,-0.2673,-0.2696,-0.2669,-0.2697,-0.2687,-0.2679,-0.2684,-0.2683,-0.2663,-0.2662,-0.2668,-0.2674,-0.2672,-0.2651,-0.2651,-0.2651,-0.2651,0,0,0,0,0,0,0,-0.2622,-0.2627,-0.2688,-0.2673,-0.2674,-0.2669,-0.2672,-0.2675,-0.2674,-0.2679,-0.2678,-0.2687,-0.2662,-0.2668,-0.2667,-0.2672,-0.2651,-0.2651,-0.2651,-0.2651,-0.2703,-0.2704,0,0,0,0,0,0,-0.2625,-0.2625,-0.2687,-0.2689,-0.2648,-0.2672,-0.2675,-0.2687,-0.2675,-0.2674,-0.2688,-0.2686,-0.2669,-0.2667,-0.2666,-0.2701,-0.2651,-0.2651,-0.2651,-0.2701,-0.2703,-0.2704,0,0,0,0,0,0,-0.2623,-0.263,-0.2685,-0.2659,-0.2666,-0.2675,-0.2689,-0.2689,-0.2694,-0.2683,-0.2679,-0.2693,-0.2668,-0.2666,-0.2677,-0.2699,-0.2651,-0.2651,-0.2699,-0.2702,-0.2704,-0.2766,0,0,0,0,0,0,-0.2621,-0.263,-0.2636,-0.266,-0.2668,-0.2716,-0.269,-0.269,-0.2702,-0.27,-0.2687,-0.2682,-0.2667,-0.2678,-0.2677,-0.2698,-0.265,-0.2698,-0.27,-0.2703,-0.2762,-0.277,-0.2777,0,0,0,0,0,-0.2618,-0.2637,-0.2637,-0.2644,-0.2679,-0.2718,-0.2722,-0.2721,-0.2704,-0.2718,-0.2708,-0.2683,-0.2694,-0.2679,-0.2678,-0.2699,-0.2696,-0.27,-0.2703,-0.2759,-0.2768,-0.2777,0,0,0,0,0,0,-0.26,-0.2637,-0.2637,-0.2665,-0.2692,-0.2715,-0.2726,-0.2727,-0.2732,-0.2724,-0.2703,-0.2699,-0.2718,-0.2704,-0.2687,-0.2723,-0.2691,-0.2694,-0.2734,-0.2743,-0.275,-0.2752,-0.265,0,0,0,0,0,-0.2603,-0.2624,-0.2659,-0.2679,-0.2696,-0.2711,-0.2724,-0.2731,-0.2741,-0.2741,-0.2734,-0.2728,-0.2733,-0.2733,-0.2735,-0.2756,-0.2729,-0.2769,-0.2777,-0.2783,-0.2785,-0.2772,-0.2778,-0.2715,-0.2715,-0.2715,0,0,-0.2599,-0.2622,-0.2632,-0.2676,-0.2693,-0.273,-0.2715,-0.2745,-0.2771,-0.2737,-0.2761,-0.2755,-0.2745,-0.2769,-0.2776,-0.2758,-0.2787,-0.2787,-0.2793,-0.2791,-0.2776,-0.2782,-0.2787,-0.2718,-0.2717,-0.2717,0,0,-0.261,-0.2627,-0.2652,-0.2685,-0.2724,-0.2743,-0.2755,-0.2787,-0.2795,-0.2825,-0.2806,-0.2814,-0.2822,-0.2823,-0.2822,-0.2873,-0.2828,-0.2874,-0.2911,-0.2899,-0.2904,-0.2907,-0.2877,-0.2878,-0.2876,-0.2876,-0.2876,0,-0.2602,-0.264,-0.2665,-0.2705,-0.2731,-0.2751,-0.2788,-0.2812,-0.2842,-0.2851,-0.2839,-0.2856,-0.2849,-0.2872,-0.2893,-0.2889,-0.2866,-0.2876,-0.2907,-0.291,-0.2913,-0.2881,-0.2881,-0.288,-0.2879,-0.2879,-0.2878,0,-0.2636,-0.2671,-0.2691,-0.2746,-0.2781,-0.2816,-0.286,-0.2888,-0.2896,-0.2911,-0.2936,-0.2932,-0.2936,-0.2943,-0.2935,-0.2959,-0.2931,-0.2918,-0.2881,-0.2923,-0.2887,-0.2886,-0.2884,-0.2883,-0.2882,-0.2881,0,0,-0.2599,-0.2695,-0.2699,-0.2729,-0.2803,-0.2831,-0.289,-0.2938,-0.2958,-0.2986,-0.3005,-0.3028,-0.3015,-0.3015,-0.3004,-0.3002,-0.3006,-0.2974,-0.2972,-0.2938,-0.2965,-0.2878,-0.2868,-0.2995,-0.2996,-0.2996,-0.293,0,-0.261,-0.2683,-0.2733,-0.2795,-0.2833,-0.2884,-0.2931,-0.2978,-0.3006,-0.3033,-0.3039,-0.3053,-0.3046,-0.3043,-0.3046,-0.3018,-0.3006,-0.3024,-0.2935,-0.2932,-0.2844,-0.2865,-0.2659,-0.2577,-0.2928,-0.2928,-0.2928,0,-0.2617,-0.2665,-0.273,-0.2814,-0.2834,-0.2876,-0.2939,-0.2988,-0.3043,-0.3063,-0.3086,-0.3087,-0.3102,-0.308,-0.3055,-0.3065,-0.3022,-0.2995,-0.2991,-0.2886,-0.2843,-0.2594,-0.2561,-0.2925,-0.2925,-0.2925,-0.2926,0,-0.2556,-0.2657,-0.2701,-0.2732,-0.2835,-0.2866,-0.2915,-0.2984,-0.3017,-0.3074,-0.3089,-0.3112,-0.3104,-0.3082,-0.3038,-0.3045,-0.2988,-0.2984,-0.2861,-0.2854,-0.2648,-0.2622,-0.2951,-0.2951,-0.2951,-0.2951,-0.2952,0,-0.2537,-0.2569,-0.2674,-0.2695,-0.2737,-0.2828,-0.287,-0.2926,-0.2998,-0.3021,-0.3086,-0.3089,-0.3103,-0.3076,-0.3041,-0.2941,-0.2985,-0.2864,-0.2833,-0.2664,-0.2642,-0.2921,-0.2919,-0.2949,-0.295,-0.295,-0.295,0,-0.2453,-0.2531,-0.2577,-0.268,-0.2707,-0.2731,-0.283,-0.2858,-0.2946,-0.2977,-0.2994,-0.306,-0.3029,-0.3019,-0.2968,-0.2917,-0.2849,-0.2796,-0.2592,-0.2538,-0.2722,-0.2724,-0.2659,-0.2655,-0.2652,-0.265,-0.2648,0,-0.2415,-0.2432,-0.2529,-0.2545,-0.2585,-0.2643,-0.2677,-0.28,-0.2834,-0.2939,-0.2934,-0.295,-0.2903,-0.2818,-0.2747,-0.2654,-0.2743,-0.2413,-0.2395,-0.2717,-0.2694,-0.27,-0.2706,-0.2142,-0.2136,-0.2131,-0.2127,0,-0.2317,-0.2352,-0.2384,-0.2421,-0.2458,-0.25,-0.2565,-0.2584,-0.2715,-0.274,-0.275,-0.2726,-0.2683,-0.2501,-0.2417,-0.2341,-0.2422,-0.2308,-0.2678,-0.226,-0.2228,-0.2206,-0.2229,-0.2083,-0.2087,-0.2091,-0.2093,-0.2095,-0.2218,-0.2211,-0.2251,-0.2268,-0.2309,-0.2316,-0.2292,-0.237,-0.2379,-0.2382,-0.2485,-0.2388,-0.2384,-0.2141,-0.2037,-0.1972,-0.2134,-0.2037,-0.2053,-0.2074,-0.2038,-0.2004,-0.1808,-0.1811,-0.1814,-0.1816,-0.1818,0,-0.2079,-0.2084,-0.2094,-0.2104,-0.2074,-0.2156,-0.2176,-0.2118,-0.2058,-0.2106,-0.208,-0.1859,-0.1747,-0.176,-0.1592,-0.1561,-0.1552,-0.1496,-0.1486,-0.153,-0.1569,-0.151,-0.1138,-0.1136,-0.1135,-0.1133,0,0,-0.2007,-0.1956,-0.1958,-0.1855,-0.1859,-0.1763,-0.1731,-0.1671,-0.1661,-0.1549,-0.1511,-0.1644,-0.1691,-0.1414,-0.1353,-0.1221,-0.136,-0.1156,-0.1698,-0.1728,-0.1765,-0.1874,-0.183,0,0,0,0,0]},{"header":{"parameterUnit":"m.s-1","parameterCategory":2,"la1":30.2991,"la2":30.254,"lo1":-89.0895,"lo2":-89.0444,"dy":0.0017,"dx":0.0017,"nx":28,"ny":28,"refTime":"2024-12-16T09:00:00:Z","depth":"2","parameterNumber":3,"parameterNumberName":"V-component_of_CURRENTS"},"data":[0,0,0,0,0,0,0,0,0,0,0,0,0,0,0,0,0,0,0,0,0,0,0,0,0,0,0,0,0,0,0,0,0,0,0,0,0,0,0,0,0,0,0,0,0,0,0,0,0,0,0,0,0,0,0,0,0,0,-0.0271,-0.027,0,-0.0181,-0.018,-0.0178,-0.0116,-0.0115,-0.0115,-0.0115,0.001,0.0013,0.0016,0,0,0,0,0,0,0,0,0,0,0,0,0,-0.0334,-0.0334,-0.0271,-0.027,-0.0269,-0.0181,-0.018,-0.0178,-0.0116,-0.0115,-0.0115,-0.0114,0.0009,0.0013,0.0017,0,0,0,0,0,0,0,0,0,0,0,0,0,-0.028,-0.0334,-0.0271,-0.0229,-0.0224,-0.0181,-0.0179,-0.0178,-0.0116,-0.0115,-0.0115,-0.0114,0.0008,0.0013,0.0017,0.0036,0,0,0.0031,0.0033,0,0,0,0,0,0,0,0,-0.0284,-0.0278,-0.0236,-0.0231,-0.0226,-0.016,-0.0156,-0.0105,-0.0116,-0.0155,-0.0115,-0.0114,-0.0045,-0.0036,-0.0018,0.0042,0.0047,0.0031,0.0034,0.0036,0.0037,0,0,0,0,0,0,0,-0.0287,-0.0281,-0.0233,-0.0235,-0.0229,-0.0195,-0.0187,-0.0146,-0.0102,-0.0151,-0.0147,-0.014,-0.0042,-0.0023,-0.0015,0.0049,0.0031,0.0035,0.0038,0.004,0.0147,0.0147,0,0,0,0,0,0,-0.0306,-0.0285,-0.0236,-0.0231,-0.0256,-0.0195,-0.0186,-0.0181,-0.0103,-0.0091,-0.0141,-0.0138,-0.0031,-0.002,-0.001,0.0022,0.0036,0.004,0.0043,0.0147,0.0147,0.0147,0,0,0,0,0,0,-0.0307,-0.0302,-0.024,-0.0257,-0.0247,-0.0195,-0.0189,-0.0179,-0.0161,-0.0095,-0.0083,-0.0133,-0.003,-0.0016,0.0026,0.0027,0.0042,0.0047,0.0146,0.0147,0.0147,0.0082,0,0,0,0,0,0,-0.0309,-0.0303,-0.0308,-0.0259,-0.0247,-0.0224,-0.0189,-0.0178,-0.0158,-0.0153,-0.0085,-0.0072,-0.0028,0.0019,0.003,0.0033,0.005,0.0146,0.0146,0.0147,0.0084,0.008,0.0076,0,0,0,0,0,-0.0312,-0.0325,-0.0309,-0.0303,-0.0255,-0.0225,-0.0216,-0.0175,-0.0159,-0.0156,-0.0106,-0.0075,0.0029,0.0022,0.0036,0.004,0.0146,0.0146,0.0147,0.0085,0.008,0.0076,0,0,0,0,0,0,-0.0356,-0.0318,-0.03,-0.0301,-0.0269,-0.0215,-0.0211,-0.0183,-0.0141,-0.0137,-0.0073,-0.0057,-0.002,0.0018,0.001,0.0072,0.0093,0.0095,0.0041,0.0037,0.0033,0.0017,0.0054,0,0,0,0,0,-0.0369,-0.0368,-0.0323,-0.0325,-0.0313,-0.0263,-0.0247,-0.022,-0.0177,-0.0158,-0.0108,-0.0055,-0.0009,0.0019,0.0063,0.0097,0.0141,0.0109,0.0105,0.0102,0.0098,0.0166,0.0168,0.0148,0.0148,0.0148,0,0,-0.0386,-0.0366,-0.0365,-0.0334,-0.0306,-0.0296,-0.0252,-0.0235,-0.0221,-0.0151,-0.012,-0.007,-0.0004,0.0034,0.0055,0.0068,0.013,0.0102,0.0098,0.0097,0.0166,0.0168,0.017,0.0148,0.0148,0.0148,0,0,-0.0426,-0.0403,-0.0417,-0.0395,-0.0363,-0.0328,-0.0328,-0.0277,-0.0249,-0.0214,-0.0158,-0.0108,-0.0042,0.0012,0.0047,0.0049,0.0104,0.006,0.0034,0.0099,0.0102,0.0104,0.0158,0.0166,0.0063,0.0063,0.0063,0,-0.0451,-0.0459,-0.0417,-0.0423,-0.0411,-0.0348,-0.0357,-0.0317,-0.0258,-0.0232,-0.0215,-0.0103,-0.005,0.0013,0.0013,0.0041,0.0081,0.0044,0.0094,0.0097,0.0101,0.0156,0.0165,0.006,0.006,0.006,0.006,0,-0.0498,-0.0502,-0.0509,-0.0493,-0.0472,-0.0471,-0.0413,-0.0385,-0.0343,-0.0296,-0.0232,-0.0154,-0.0085,-0.0059,-0.0022,0.0032,0.0052,0.0076,0.0101,0.0099,0.0157,0.0168,0.0055,0.0056,0.0057,0.0058,0,0,-0.0554,-0.0547,-0.0548,-0.0555,-0.0511,-0.05,-0.0472,-0.0424,-0.0399,-0.0331,-0.029,-0.0203,-0.0153,-0.0111,-0.0048,0.0011,0.007,0.0046,0.0051,0.0092,0.0207,0.0239,0.0254,0.0101,0.0103,0.0104,0.0236,0,-0.0604,-0.0644,-0.0613,-0.0634,-0.0647,-0.0579,-0.0558,-0.0502,-0.0438,-0.038,-0.0281,-0.0224,-0.0173,-0.014,-0.0072,0.0037,0.0097,0.0032,0.0211,0.0216,0.0238,0.0267,0.0232,0.0348,0.0247,0.0249,0.025,0,-0.0659,-0.0678,-0.072,-0.0709,-0.0706,-0.0702,-0.0648,-0.0618,-0.0514,-0.0463,-0.0376,-0.0294,-0.0189,-0.0153,0.0032,-0.0013,0.0085,0.0168,0.0176,0.0236,0.0268,0.0337,0.0372,0.0269,0.0268,0.0266,0.0265,0,-0.073,-0.0746,-0.0786,-0.0784,-0.0761,-0.0758,-0.0734,-0.0649,-0.0619,-0.0512,-0.0471,-0.0334,-0.0261,-0.012,0.0058,0.0045,0.0262,0.0271,0.0392,0.0395,0.0416,0.0419,0.0394,0.0393,0.0393,0.0393,0.0392,0,-0.0797,-0.0823,-0.0826,-0.0849,-0.0882,-0.0833,-0.0833,-0.0781,-0.07,-0.0659,-0.0524,-0.0452,-0.0251,-0.0097,0.0052,0.0265,0.0264,0.0396,0.0438,0.0392,0.0391,0.0362,0.0356,0.0398,0.0397,0.0396,0.0395,0,-0.0867,-0.087,-0.0916,-0.0919,-0.0922,-0.0944,-0.0916,-0.0904,-0.0816,-0.0754,-0.0724,-0.0533,-0.0323,-0.0112,0.0135,0.0259,0.0455,0.0525,0.0454,0.0485,0.0541,0.0531,0.0671,0.0673,0.0675,0.0677,0.0678,0,-0.0906,-0.0942,-0.0983,-0.1016,-0.1022,-0.1042,-0.1049,-0.0977,-0.0951,-0.0794,-0.0765,-0.0553,-0.0379,0.0001,0.0255,0.0532,0.0527,0.0641,0.0613,0.0546,0.0573,0.0559,0.0547,0.0616,0.0617,0.0617,0.0618,0,-0.0976,-0.0992,-0.103,-0.1109,-0.114,-0.1163,-0.116,-0.1157,-0.1051,-0.0961,-0.0799,-0.0645,-0.0275,0.0036,0.0384,0.0537,0.0594,0.0663,0.0638,0.0544,0.0504,0.0526,0.0514,0.0623,0.0623,0.0622,0.0622,0.0622,-0.1016,-0.1066,-0.1122,-0.1188,-0.123,-0.1261,-0.1264,-0.1225,-0.116,-0.099,-0.0843,-0.0568,-0.0283,0.023,0.0467,0.0685,0.0684,0.0731,0.0725,0.0719,0.0682,0.0647,0.0787,0.0787,0.0787,0.0788,0.0788,0,-0.106,-0.1116,-0.1193,-0.1263,-0.1313,-0.1316,-0.1313,-0.1268,-0.1176,-0.099,-0.0793,-0.0443,-0.0091,0.0211,0.0562,0.0762,0.0735,0.0786,0.0708,0.0702,0.0697,0.0654,0.0754,0.0754,0.0755,0.0755,0,0,-0.1083,-0.1166,-0.1209,-0.1306,-0.1352,-0.1374,-0.1362,-0.1265,-0.1122,-0.0911,-0.0697,-0.0427,-0.0065,0.0169,0.0422,0.0601,0.0595,0.0613,0.0621,0.0494,0.0486,0.065,0.0577,0,0,0,0,0]}],[{"header":{"parameterUnit":"m.s-1","parameterCategory":2,"la1":30.2991,"la2":30.254,"lo1":-89.0895,"lo2":-89.0444,"dy":0.0017,"dx":0.0017,"nx":28,"ny":28,"refTime":"2024-12-16T09:00:00:Z","depth":"4","parameterNumber":2,"parameterNumberName":"U-component_of_CURRENTS"},"data":[0,0,0,0,0,0,0,0,0,0,0,0,0,0,0,0,0,0,0,0,0,0,0,0,0,0,0,0,0,0,0,0,0,0,0,0,0,0,0,0,0,0,0,0,0,0,0,0,0,0,0,0,0,0,0,0,0,0,-0.1846,-0.1847,0,-0.1915,-0.1916,-0.1917,-0.1959,-0.1959,-0.1959,-0.196,-0.2018,-0.2019,-0.2021,0,0,0,0,0,0,0,0,0,0,0,0,0,-0.1754,-0.1755,-0.1846,-0.1847,-0.1848,-0.1915,-0.1916,-0.1917,-0.1959,-0.1959,-0.1959,-0.196,-0.2018,-0.2019,-0.2021,0,0,0,0,0,0,0,0,0,0,0,0,0,-0.1804,-0.1755,-0.1845,-0.1878,-0.1882,-0.1915,-0.1916,-0.1917,-0.1959,-0.1959,-0.196,-0.196,-0.2017,-0.2019,-0.2021,-0.2021,0,0,-0.2026,-0.2027,0,0,0,0,0,0,0,0,-0.1801,-0.1807,-0.1872,-0.1876,-0.188,-0.193,-0.1905,-0.1952,-0.1958,-0.1927,-0.196,-0.196,-0.1989,-0.1993,-0.2002,-0.2024,-0.2027,-0.2027,-0.2028,-0.2029,-0.2029,0,0,0,0,0,0,0,-0.1797,-0.1804,-0.1871,-0.1873,-0.1878,-0.1891,-0.1898,-0.1914,-0.1952,-0.193,-0.1934,-0.1944,-0.199,-0.2,-0.2004,-0.2027,-0.2027,-0.2028,-0.2029,-0.203,-0.2135,-0.2136,0,0,0,0,0,0,-0.1792,-0.1801,-0.1869,-0.1874,-0.1843,-0.1892,-0.19,-0.1912,-0.1953,-0.196,-0.1944,-0.1946,-0.1997,-0.2002,-0.2006,-0.2086,-0.2029,-0.203,-0.2031,-0.2133,-0.2135,-0.2137,0,0,0,0,0,0,-0.1789,-0.1797,-0.1867,-0.184,-0.185,-0.1893,-0.1906,-0.1913,-0.1954,-0.1963,-0.197,-0.1981,-0.1998,-0.2004,-0.2052,-0.2086,-0.2031,-0.2033,-0.2131,-0.2134,-0.2136,-0.2197,0,0,0,0,0,0,-0.1786,-0.1796,-0.1817,-0.184,-0.1851,-0.1909,-0.1906,-0.1914,-0.1959,-0.1963,-0.1997,-0.2001,-0.1999,-0.2049,-0.2054,-0.2087,-0.2034,-0.2129,-0.2132,-0.2135,-0.2193,-0.2201,-0.2208,0,0,0,0,0,-0.1783,-0.1806,-0.1817,-0.1827,-0.1874,-0.191,-0.1918,-0.1948,-0.196,-0.1986,-0.2012,-0.2002,-0.2072,-0.2053,-0.2057,-0.2092,-0.2127,-0.2131,-0.2135,-0.2189,-0.2199,-0.2208,0,0,0,0,0,0,-0.1779,-0.1813,-0.1826,-0.186,-0.1894,-0.1918,-0.1949,-0.1967,-0.2007,-0.202,-0.2024,-0.2031,-0.2085,-0.2082,-0.206,-0.2132,-0.2098,-0.2103,-0.2137,-0.2147,-0.2155,-0.215,-0.2036,0,0,0,0,0,-0.1787,-0.1814,-0.1846,-0.1876,-0.1896,-0.1928,-0.1952,-0.1975,-0.2006,-0.2026,-0.2051,-0.2076,-0.2099,-0.2119,-0.2138,-0.2179,-0.2157,-0.2205,-0.2213,-0.2219,-0.2219,-0.2216,-0.2223,-0.2149,-0.2149,-0.2149,0,0,-0.1795,-0.1817,-0.1834,-0.1878,-0.1906,-0.1943,-0.1945,-0.1993,-0.203,-0.2024,-0.2092,-0.2107,-0.2116,-0.2163,-0.2187,-0.2169,-0.2229,-0.2224,-0.2229,-0.2226,-0.222,-0.2227,-0.2233,-0.2152,-0.2152,-0.2151,0,0,-0.1812,-0.1845,-0.1871,-0.1904,-0.1954,-0.1975,-0.1996,-0.2043,-0.2075,-0.2133,-0.2138,-0.2175,-0.2219,-0.223,-0.2238,-0.2301,-0.227,-0.2314,-0.2352,-0.2349,-0.2355,-0.2359,-0.2338,-0.234,-0.2319,-0.2319,-0.2319,0,-0.1824,-0.1857,-0.1886,-0.1922,-0.1954,-0.1993,-0.2031,-0.2069,-0.213,-0.2156,-0.2165,-0.2232,-0.2246,-0.2286,-0.2314,-0.2318,-0.2305,-0.2314,-0.2358,-0.2362,-0.2365,-0.2342,-0.2344,-0.2322,-0.2322,-0.2322,-0.2321,0,-0.185,-0.1893,-0.1914,-0.1969,-0.2009,-0.2052,-0.2102,-0.2153,-0.2195,-0.2224,-0.2289,-0.231,-0.2344,-0.236,-0.236,-0.24,-0.2378,-0.2365,-0.2329,-0.2376,-0.2349,-0.2349,-0.2327,-0.2326,-0.2325,-0.2324,0,0,-0.1826,-0.1915,-0.1926,-0.196,-0.2039,-0.207,-0.2143,-0.2204,-0.2247,-0.2309,-0.2355,-0.2407,-0.2418,-0.2428,-0.2435,-0.2441,-0.246,-0.2424,-0.2422,-0.2394,-0.2443,-0.2284,-0.2268,-0.2457,-0.2458,-0.2458,-0.2413,0,-0.1838,-0.1904,-0.1951,-0.2023,-0.2059,-0.2126,-0.2185,-0.2251,-0.2305,-0.2362,-0.2394,-0.244,-0.2443,-0.2466,-0.2477,-0.2467,-0.2465,-0.2472,-0.2409,-0.2407,-0.2252,-0.2264,-0.246,-0.2413,-0.2413,-0.2413,-0.2413,0,-0.1837,-0.1883,-0.1954,-0.2046,-0.207,-0.2126,-0.2219,-0.2278,-0.2362,-0.2405,-0.2456,-0.248,-0.2518,-0.2506,-0.2507,-0.2514,-0.2486,-0.2468,-0.2466,-0.2293,-0.2247,-0.2358,-0.2413,-0.2413,-0.2413,-0.2413,-0.2413,0,-0.1778,-0.1881,-0.1936,-0.197,-0.2081,-0.2134,-0.2198,-0.2292,-0.2339,-0.2432,-0.2464,-0.2514,-0.2534,-0.2526,-0.2502,-0.2511,-0.2475,-0.2476,-0.23,-0.2289,-0.242,-0.2416,-0.2458,-0.2459,-0.2459,-0.2459,-0.2459,0,-0.1747,-0.1795,-0.1921,-0.1948,-0.2016,-0.2112,-0.2187,-0.2259,-0.2353,-0.2387,-0.2478,-0.2489,-0.2541,-0.2529,-0.2506,-0.239,-0.2474,-0.2296,-0.2263,-0.2447,-0.2447,-0.242,-0.2416,-0.2457,-0.2457,-0.2458,-0.2458,0,-0.1661,-0.1749,-0.1815,-0.1945,-0.1988,-0.2036,-0.2167,-0.2208,-0.232,-0.2364,-0.2393,-0.2474,-0.2451,-0.2465,-0.2439,-0.2362,-0.2291,-0.2227,-0.2413,-0.2393,-0.2108,-0.2109,-0.2026,-0.202,-0.2015,-0.2011,-0.2007,0,-0.1617,-0.1645,-0.1785,-0.1821,-0.1883,-0.1976,-0.2028,-0.2168,-0.2202,-0.232,-0.2312,-0.2349,-0.2375,-0.2197,-0.2247,-0.2172,-0.2147,-0.2099,-0.2114,-0.2086,-0.2063,-0.2072,-0.2079,-0.1999,-0.1997,-0.1996,-0.1995,0,-0.1519,-0.1587,-0.1637,-0.1711,-0.1779,-0.1839,-0.1925,-0.1933,-0.2069,-0.2198,-0.2153,-0.2132,-0.2097,-0.2071,-0.202,-0.1975,-0.2129,-0.2045,-0.2056,-0.207,-0.2052,-0.2036,-0.2049,-0.1977,-0.1979,-0.1981,-0.1982,0,-0.1442,-0.1451,-0.1525,-0.1569,-0.1649,-0.1658,-0.1732,-0.176,-0.1811,-0.1952,-0.1928,-0.1974,-0.206,-0.1966,-0.1924,-0.1862,-0.1839,-0.1781,-0.1806,-0.1826,-0.1783,-0.1732,-0.1516,0,0,0,0,0,-0.135,-0.1339,-0.1372,-0.1412,-0.1484,-0.1523,-0.1635,-0.1713,-0.185,-0.1758,-0.1836,-0.1796,-0.174,-0.1775,-0.1665,-0.1839,-0.185,-0.1706,-0.1797,-0.1877,-0.1898,-0.1867,0,0,0,0,0,0,-0.1288,-0.1312,-0.1316,-0.1262,-0.1256,-0.1313,-0.1373,-0.1473,-0.1436,-0.1582,-0.1553,-0.1675,-0.1642,-0.1755,-0.1619,-0.163,-0.1647,-0.1755,-0.175,-0.1866,-0.1884,-0.1901,-0.1876,0,0,0,0,0]},{"header":{"parameterUnit":"m.s-1","parameterCategory":2,"la1":30.2991,"la2":30.254,"lo1":-89.0895,"lo2":-89.0444,"dy":0.0017,"dx":0.0017,"nx":28,"ny":28,"refTime":"2024-12-16T09:00:00:Z","depth":"4","parameterNumber":3,"parameterNumberName":"V-component_of_CURRENTS"},"data":[0,0,0,0,0,0,0,0,0,0,0,0,0,0,0,0,0,0,0,0,0,0,0,0,0,0,0,0,0,0,0,0,0,0,0,0,0,0,0,0,0,0,0,0,0,0,0,0,0,0,0,0,0,0,0,0,0,0,-0.0186,-0.0186,0,-0.013,-0.013,-0.0129,-0.0088,-0.0088,-0.0087,-0.0087,0.0005,0.0007,0.0009,0,0,0,0,0,0,0,0,0,0,0,0,0,-0.0219,-0.0219,-0.0186,-0.0186,-0.0185,-0.0131,-0.013,-0.0129,-0.0088,-0.0088,-0.0087,-0.0087,0.0004,0.0007,0.001,0,0,0,0,0,0,0,0,0,0,0,0,0,-0.0187,-0.0219,-0.0187,-0.0159,-0.0157,-0.0131,-0.013,-0.0129,-0.0088,-0.0088,-0.0087,-0.0087,0.0003,0.0007,0.001,0.0024,0,0,0.002,0.0022,0,0,0,0,0,0,0,0,-0.0189,-0.0186,-0.0164,-0.0161,-0.0158,-0.0117,-0.0108,-0.0076,-0.0088,-0.0112,-0.0087,-0.0087,-0.0034,-0.0027,-0.0016,0.0029,0.0033,0.0021,0.0023,0.0024,0.0025,0,0,0,0,0,0,0,-0.0191,-0.0188,-0.0163,-0.0163,-0.016,-0.0137,-0.0132,-0.0101,-0.0074,-0.011,-0.0107,-0.0104,-0.0032,-0.0019,-0.0013,0.0034,0.0021,0.0024,0.0026,0.0027,0.0106,0.0106,0,0,0,0,0,0,-0.0204,-0.019,-0.0165,-0.0161,-0.0175,-0.0137,-0.0132,-0.0129,-0.0075,-0.0067,-0.0104,-0.0102,-0.0025,-0.0017,-0.001,0.0014,0.0024,0.0027,0.0029,0.0105,0.0106,0.0106,0,0,0,0,0,0,-0.0205,-0.0202,-0.0167,-0.0175,-0.017,-0.0137,-0.0135,-0.0128,-0.0118,-0.0071,-0.0062,-0.0101,-0.0025,-0.0015,0.0016,0.0018,0.0029,0.0032,0.0105,0.0105,0.0106,0.006,0,0,0,0,0,0,-0.0206,-0.0203,-0.0209,-0.0176,-0.017,-0.0159,-0.0135,-0.0128,-0.0117,-0.0114,-0.0065,-0.0056,-0.0023,0.001,0.0019,0.0023,0.0035,0.0105,0.0105,0.0106,0.0061,0.0058,0.0056,0,0,0,0,0,-0.0207,-0.0218,-0.0209,-0.0207,-0.0178,-0.0159,-0.0154,-0.0128,-0.0118,-0.0117,-0.0082,-0.0058,0.0017,0.0013,0.0023,0.0028,0.0105,0.0105,0.0106,0.0063,0.0059,0.0056,0,0,0,0,0,0,-0.0236,-0.0214,-0.0204,-0.0207,-0.0188,-0.0153,-0.0153,-0.0134,-0.0106,-0.0104,-0.0057,-0.0046,-0.0019,0.001,0.0004,0.0051,0.0066,0.0068,0.0029,0.0026,0.0024,0.0013,0.0037,0,0,0,0,0,-0.0246,-0.0248,-0.0221,-0.0225,-0.0218,-0.0187,-0.0178,-0.016,-0.0131,-0.0119,-0.0083,-0.0045,-0.001,0.0011,0.0042,0.0069,0.0102,0.0079,0.0076,0.0074,0.0072,0.0126,0.0128,0.0106,0.0106,0.0106,0,0,-0.0259,-0.0248,-0.0249,-0.0231,-0.0215,-0.0211,-0.018,-0.0172,-0.0164,-0.0113,-0.0093,-0.0056,-0.0007,0.0022,0.0037,0.0047,0.0097,0.0074,0.0071,0.0071,0.0126,0.0128,0.013,0.0106,0.0106,0.0106,0,0,-0.0287,-0.0276,-0.0288,-0.0275,-0.0257,-0.0234,-0.0235,-0.0203,-0.0185,-0.0162,-0.0121,-0.0083,-0.0036,0.0006,0.0032,0.0035,0.0076,0.0042,0.0026,0.0078,0.008,0.0083,0.0123,0.0129,0.0046,0.0046,0.0046,0,-0.0305,-0.0315,-0.0288,-0.0295,-0.0291,-0.0249,-0.0259,-0.0232,-0.0193,-0.0176,-0.0164,-0.0081,-0.0041,0.0008,0.001,0.0029,0.0059,0.0033,0.0074,0.0077,0.0081,0.0121,0.0129,0.0043,0.0044,0.0044,0.0044,0,-0.0338,-0.0347,-0.0354,-0.0347,-0.0337,-0.0339,-0.0301,-0.0284,-0.0257,-0.0224,-0.0178,-0.0117,-0.0066,-0.0045,-0.0016,0.0028,0.0042,0.006,0.008,0.008,0.0123,0.0131,0.004,0.0041,0.0042,0.0042,0,0,-0.0375,-0.0379,-0.0382,-0.0393,-0.0367,-0.0364,-0.0346,-0.0317,-0.0304,-0.0252,-0.0225,-0.0154,-0.0116,-0.0084,-0.0034,0.0016,0.0065,0.0043,0.0047,0.0078,0.0172,0.0152,0.016,0.0089,0.0091,0.0092,0.019,0,-0.0411,-0.0447,-0.043,-0.0454,-0.0468,-0.0426,-0.0416,-0.0379,-0.0336,-0.0297,-0.0217,-0.0176,-0.0131,-0.0107,-0.0048,0.0037,0.0087,0.0036,0.0171,0.0175,0.0155,0.0169,0.0096,0.0197,0.0199,0.02,0.0201,0,-0.0448,-0.0469,-0.051,-0.0516,-0.0517,-0.0522,-0.0496,-0.0479,-0.0405,-0.0369,-0.0301,-0.0237,-0.0149,-0.0117,0.0033,-0.0002,0.0076,0.0144,0.015,0.0153,0.0172,0.02,0.0218,0.0217,0.0215,0.0214,0.0213,0,-0.0496,-0.0521,-0.056,-0.0563,-0.0562,-0.057,-0.0561,-0.0507,-0.0491,-0.0413,-0.0387,-0.0273,-0.0216,-0.0098,0.0044,0.0039,0.0207,0.022,0.0279,0.0278,0.0286,0.0283,0.0321,0.0321,0.0321,0.032,0.032,0,-0.0537,-0.0568,-0.0592,-0.0615,-0.0657,-0.063,-0.0647,-0.0615,-0.0564,-0.054,-0.0432,-0.038,-0.0208,-0.0088,0.0035,0.0184,0.0205,0.0278,0.0305,0.0264,0.0257,0.0292,0.0288,0.0324,0.0323,0.0323,0.0322,0,-0.0577,-0.0594,-0.0644,-0.0671,-0.0684,-0.0713,-0.0719,-0.0719,-0.0664,-0.0625,-0.0603,-0.0455,-0.0294,-0.0121,0.008,0.0164,0.0311,0.0358,0.0296,0.0317,0.0348,0.034,0.0429,0.0429,0.0429,0.0429,0.0429,0,-0.0597,-0.0632,-0.0697,-0.0737,-0.0756,-0.0793,-0.0815,-0.0779,-0.0765,-0.0665,-0.0643,-0.0487,-0.0372,-0.0094,0.0076,0.0307,0.0336,0.0398,0.0378,0.0344,0.0361,0.0353,0.0345,0.043,0.043,0.043,0.043,0,-0.0634,-0.0665,-0.0707,-0.0796,-0.0844,-0.0882,-0.0902,-0.09,-0.0837,-0.0794,-0.0655,-0.0496,-0.0314,-0.0096,0.0084,0.0248,0.035,0.04,0.0401,0.0382,0.0346,0.0361,0.0353,0.043,0.043,0.043,0.043,0,-0.0657,-0.07,-0.0765,-0.0835,-0.0903,-0.094,-0.095,-0.0911,-0.0882,-0.0759,-0.0716,-0.05,-0.037,-0.0126,0.0041,0.0199,0.0233,0.0266,0.0274,0.0275,0.0197,0.0126,0.0169,0,0,0,0,0,-0.0669,-0.0719,-0.0795,-0.0867,-0.0936,-0.0966,-0.0987,-0.0976,-0.0922,-0.0829,-0.0764,-0.0584,-0.031,-0.0183,-0.0027,0.0021,0.0237,0.0204,0.0273,0.0434,0.0433,0.0365,0,0,0,0,0,0,-0.0678,-0.0752,-0.0793,-0.0875,-0.0925,-0.0984,-0.0997,-0.0965,-0.0895,-0.082,-0.0665,-0.0566,-0.0295,-0.0391,-0.0026,0.0022,0.0079,0.0342,0.0344,0.0434,0.0433,0.0433,0.0363,0,0,0,0,0]}]]